[[{"header":{"parameterUnit":"m.s-1","parameterCategory":1,"la1":30.2991,"la2":30.254,"lo1":-89.0895,"lo2":-89.0444,"dy":0.0017,"dx":0.0017,"nx":28,"ny":28,"refTime":"2025-05-22T03:00:00:Z","depth":0,"parameterNumber":2,"parameterNumberName":"U-component_of_WINDS"},"data":[0,0,0,0,0,0,0,0,0,0,0,0,0,0,0,0,0,0,0,0,0,0,0,0,0,0,0,0,0,0,0,0,0,0,0,0,0,0,0,0,0,0,0,0,0,0,0,0,0,0,0,0,0,0,0,0,0,0,0.7177,0.7177,0,0.724,0.7241,0.7242,0.7262,0.7262,0.7262,0.7262,0.7324,0.7325,0.7327,0,0,0,0,0,0,0,0,0,0,0,0,0,0.7069,0.7071,0.7177,0.7178,0.7178,0.724,0.7241,0.7242,0.7263,0.7262,0.7262,0.7262,0.7323,0.7325,0.7327,0,0,0,0,0,0,0,0,0,0,0,0,0,0.7123,0.7072,0.7177,0.7196,0.7198,0.724,0.7241,0.7242,0.7263,0.7262,0.7262,0.7261,0.7322,0.7325,0.7328,0.7354,0,0,0.7336,0.7338,0,0,0,0,0,0,0,0,0.712,0.7126,0.7192,0.7195,0.7198,0.7243,0.7226,0.728,0.7263,0.7238,0.7262,0.7261,0.7297,0.7302,0.7315,0.7357,0.7359,0.7337,0.7338,0.734,0.7341,0,0,0,0,0,0,0,0.7116,0.7124,0.7202,0.7193,0.7196,0.72,0.7208,0.7236,0.7269,0.724,0.7242,0.7249,0.7298,0.7312,0.7316,0.736,0.7337,0.7339,0.7341,0.7342,0.7426,0.7426,0,0,0,0,0,0,0.7109,0.7121,0.72,0.7204,0.7157,0.7203,0.7211,0.7229,0.7269,0.7274,0.725,0.725,0.7307,0.7313,0.7318,0.7351,0.734,0.7342,0.7344,0.7425,0.7426,0.7427,0,0,0,0,0,0,0.7107,0.7116,0.7197,0.7163,0.7173,0.7205,0.7225,0.723,0.7244,0.7276,0.7281,0.7258,0.7307,0.7314,0.7345,0.7353,0.7344,0.7346,0.7425,0.7426,0.7426,0.7416,0,0,0,0,0,0,0.7104,0.7115,0.7126,0.7163,0.7175,0.7224,0.7226,0.7232,0.7249,0.725,0.7285,0.729,0.7307,0.734,0.7348,0.7357,0.7348,0.7424,0.7425,0.7426,0.7416,0.7417,0.7417,0,0,0,0,0,0.71,0.712,0.7127,0.7136,0.719,0.7224,0.7231,0.7251,0.725,0.7261,0.7281,0.7289,0.7351,0.7343,0.7352,0.7362,0.7424,0.7425,0.7426,0.7416,0.7417,0.7417,0,0,0,0,0,0,0.7083,0.7125,0.7133,0.7166,0.7191,0.7228,0.7242,0.7251,0.7277,0.7277,0.73,0.7307,0.7336,0.7352,0.7342,0.7389,0.7388,0.7391,0.7377,0.7378,0.7379,0.7374,0.7351,0,0,0,0,0,0.7083,0.7108,0.7144,0.717,0.7182,0.721,0.7225,0.7239,0.7265,0.7276,0.7299,0.7323,0.7348,0.7364,0.7389,0.7419,0.7426,0.743,0.743,0.7431,0.7433,0.7449,0.7451,0.743,0.743,0.743,0,0,0.7083,0.711,0.7124,0.7167,0.7188,0.7213,0.7219,0.7244,0.7263,0.728,0.731,0.7327,0.7356,0.7386,0.74,0.7401,0.744,0.7432,0.7432,0.7434,0.745,0.7452,0.7454,0.7431,0.7431,0.7431,0,0,0.7096,0.712,0.7143,0.7165,0.7197,0.7215,0.7221,0.7256,0.7268,0.7299,0.7313,0.7334,0.7377,0.7397,0.7413,0.7433,0.7441,0.7441,0.7443,0.7459,0.7461,0.7462,0.7469,0.7471,0.7443,0.7443,0.7443,0,0.7092,0.7132,0.7154,0.718,0.7198,0.7215,0.7239,0.7258,0.7296,0.7308,0.7308,0.7362,0.7382,0.7417,0.7422,0.7435,0.7441,0.7437,0.7459,0.7461,0.7462,0.7469,0.7472,0.7442,0.7442,0.7442,0.7442,0,0.7125,0.7151,0.7167,0.7204,0.7224,0.7248,0.7273,0.729,0.7302,0.732,0.7351,0.7376,0.7406,0.7416,0.7427,0.7452,0.7451,0.7455,0.7454,0.7464,0.747,0.7473,0.7442,0.7442,0.7442,0.7442,0,0,0.7128,0.7179,0.7184,0.7201,0.7238,0.7259,0.7283,0.7314,0.7328,0.7353,0.7374,0.741,0.7414,0.7431,0.7445,0.7459,0.7473,0.7461,0.7462,0.7462,0.7501,0.7497,0.75,0.7479,0.7479,0.748,0.7498,0,0.7146,0.7192,0.7213,0.7249,0.7274,0.7291,0.7312,0.7337,0.7354,0.7376,0.7395,0.742,0.7423,0.7434,0.7448,0.7468,0.7481,0.7467,0.7497,0.7498,0.7489,0.7504,0.75,0.7517,0.7501,0.7502,0.7502,0,0.7173,0.72,0.7239,0.7273,0.7284,0.7303,0.7332,0.7354,0.7381,0.7393,0.7413,0.7426,0.7451,0.7449,0.7484,0.7474,0.7487,0.7499,0.75,0.7503,0.75,0.7507,0.7522,0.7525,0.7506,0.7506,0.7506,0,0.7171,0.7217,0.7246,0.726,0.7301,0.7314,0.7331,0.7358,0.7375,0.7401,0.7412,0.7439,0.7454,0.7475,0.7494,0.7491,0.7527,0.7527,0.7536,0.7536,0.7543,0.7542,0.756,0.7552,0.7552,0.7552,0.7552,0,0.7188,0.7211,0.7246,0.7264,0.729,0.7313,0.7338,0.7356,0.738,0.7401,0.7417,0.7436,0.7461,0.7483,0.7499,0.7525,0.7531,0.754,0.7544,0.7539,0.7537,0.7547,0.7547,0.7553,0.7553,0.7552,0.7552,0,0.719,0.7215,0.7247,0.7283,0.7293,0.731,0.734,0.7358,0.7376,0.7402,0.7409,0.7438,0.7464,0.7486,0.7521,0.7531,0.7558,0.7563,0.7549,0.7551,0.7559,0.7558,0.7584,0.7589,0.7578,0.7578,0.7578,0,0.7199,0.7217,0.7256,0.7271,0.7289,0.7314,0.7331,0.7355,0.7372,0.7405,0.7418,0.7446,0.747,0.7511,0.7534,0.756,0.7565,0.7573,0.7569,0.7563,0.7565,0.7563,0.7565,0.7573,0.7573,0.7573,0.7573,0,0.7212,0.7224,0.7249,0.7279,0.73,0.7324,0.7348,0.736,0.7388,0.7406,0.7434,0.7453,0.7488,0.7515,0.7544,0.7561,0.7571,0.7574,0.7577,0.7572,0.7563,0.7567,0.7549,0.7573,0.7573,0.7573,0.7573,0.7573,0.7218,0.7235,0.7265,0.7292,0.7313,0.7336,0.7354,0.7375,0.7399,0.743,0.7442,0.7471,0.7497,0.7537,0.7554,0.7576,0.7577,0.7582,0.7583,0.7584,0.7583,0.756,0.7581,0.7581,0.7581,0.7581,0.7581,0,0.7232,0.7252,0.7277,0.7311,0.7333,0.7342,0.7369,0.7386,0.7411,0.7436,0.7459,0.7491,0.7517,0.7542,0.757,0.7582,0.7587,0.7589,0.7588,0.7591,0.7581,0.7575,0.7584,0.7584,0.7584,0.7584,0.7584,0.7584,0.7241,0.727,0.7285,0.7324,0.7344,0.7372,0.7387,0.7408,0.7427,0.7462,0.7485,0.7502,0.7526,0.7555,0.758,0.7586,0.7595,0.7595,0.7603,0.7592,0.7592,0.7591,0.7586,0.7597,0.7597,0.7611,0.7611,0.7611]},{"header":{"parameterUnit":"m.s-1","parameterCategory":1,"la1":30.2991,"la2":30.254,"lo1":-89.0895,"lo2":-89.0444,"dy":0.0017,"dx":0.0017,"nx":28,"ny":28,"refTime":"2025-05-22T03:00:00:Z","depth":0,"parameterNumber":3,"parameterNumberName":"V-component_of_WINDS"},"data":[0,0,0,0,0,0,0,0,0,0,0,0,0,0,0,0,0,0,0,0,0,0,0,0,0,0,0,0,0,0,0,0,0,0,0,0,0,0,0,0,0,0,0,0,0,0,0,0,0,0,0,0,0,0,0,0,0,0,2.3429,2.3429,0,2.3443,2.3443,2.3443,2.3417,2.3416,2.3415,2.3415,2.3428,2.343,2.3431,0,0,0,0,0,0,0,0,0,0,0,0,0,2.3379,2.338,2.3429,2.3429,2.343,2.3443,2.3443,2.3443,2.3417,2.3416,2.3415,2.3414,2.3428,2.3429,2.3431,0,0,0,0,0,0,0,0,0,0,0,0,0,2.3398,2.3381,2.3429,2.3418,2.3417,2.3443,2.3443,2.3443,2.3418,2.3416,2.3415,2.3414,2.3428,2.3429,2.3431,2.3468,0,0,2.3436,2.3437,0,0,0,0,0,0,0,0,2.3397,2.34,2.342,2.3419,2.3418,2.3427,2.3431,2.3452,2.3418,2.3418,2.3415,2.3413,2.3429,2.3431,2.3436,2.3469,2.3469,2.3437,2.3438,2.3438,2.3439,0,0,0,0,0,0,0,2.3395,2.3399,2.3435,2.342,2.3419,2.3412,2.3413,2.3434,2.343,2.3417,2.3416,2.3418,2.3428,2.3434,2.3436,2.3469,2.3437,2.3438,2.3439,2.344,2.353,2.3532,0,0,0,0,0,0,2.3396,2.3398,2.3434,2.3435,2.3404,2.3414,2.3415,2.3426,2.343,2.343,2.3419,2.3416,2.3432,2.3434,2.3437,2.3478,2.3438,2.344,2.3441,2.3529,2.3531,2.3532,0,0,0,0,0,0,2.3395,2.3399,2.3434,2.3416,2.342,2.3416,2.3428,2.3426,2.3432,2.3431,2.343,2.3426,2.3431,2.3434,2.346,2.3478,2.3441,2.3442,2.3527,2.3529,2.3531,2.3563,0,0,0,0,0,0,2.3393,2.3399,2.3413,2.3417,2.3421,2.3457,2.3429,2.3428,2.3436,2.3433,2.3437,2.3437,2.343,2.3457,2.3462,2.348,2.3444,2.3526,2.3528,2.3531,2.356,2.3566,2.3571,0,0,0,0,0,2.3392,2.3422,2.3414,2.3419,2.3439,2.3458,2.3461,2.3453,2.3437,2.3451,2.345,2.3437,2.3476,2.346,2.3465,2.3484,2.3524,2.3528,2.3531,2.3558,2.3565,2.357,0,0,0,0,0,0,2.3422,2.3423,2.3414,2.3446,2.3452,2.3454,2.3472,2.3461,2.3471,2.3468,2.3458,2.3459,2.3486,2.3488,2.347,2.3519,2.3497,2.3502,2.3517,2.3523,2.3528,2.3527,2.3445,0,0,0,0,0,2.3432,2.3448,2.3448,2.3477,2.348,2.3475,2.3484,2.3477,2.3483,2.3485,2.3486,2.3492,2.3505,2.3515,2.3527,2.3561,2.356,2.3576,2.3581,2.3585,2.3589,2.3605,2.3611,2.3542,2.3542,2.3542,0,0,2.3454,2.3456,2.3467,2.3483,2.3487,2.3503,2.3478,2.3496,2.3508,2.3488,2.3512,2.3513,2.3518,2.3548,2.3561,2.355,2.3608,2.3589,2.3593,2.3594,2.3608,2.3615,2.3621,2.3544,2.3544,2.3543,0,0,2.3501,2.3506,2.3529,2.3533,2.3539,2.3535,2.3541,2.3544,2.3543,2.3567,2.3552,2.3565,2.3589,2.3593,2.3599,2.3646,2.3633,2.3651,2.3677,2.3693,2.3698,2.3703,2.3718,2.3724,2.3654,2.3654,2.3654,0,2.3528,2.3552,2.3542,2.3561,2.3568,2.355,2.3573,2.3577,2.3587,2.3592,2.358,2.3608,2.3611,2.364,2.3651,2.3657,2.3662,2.365,2.3698,2.3703,2.3707,2.3721,2.3727,2.3656,2.3656,2.3656,2.3655,0,2.3582,2.3599,2.3617,2.3626,2.3635,2.3656,2.3649,2.3659,2.3651,2.3648,2.3672,2.3674,2.3686,2.3693,2.3686,2.372,2.3713,2.37,2.3678,2.3716,2.3729,2.3734,2.3659,2.3658,2.3657,2.3657,0,0,2.365,2.3652,2.3659,2.3662,2.3667,2.3679,2.3698,2.371,2.3717,2.3725,2.374,2.376,2.3747,2.3753,2.3746,2.376,2.3795,2.3744,2.3744,2.3752,2.3831,2.384,2.3846,2.3787,2.3788,2.3789,2.383,0,2.3696,2.3729,2.372,2.3753,2.3767,2.375,2.3766,2.3771,2.3768,2.378,2.3777,2.3791,2.3774,2.3777,2.379,2.3788,2.381,2.3785,2.38,2.38,2.3797,2.3854,2.3863,2.3902,2.3835,2.3836,2.3837,0,2.3754,2.3762,2.3796,2.3796,2.3801,2.3817,2.3825,2.3837,2.384,2.3838,2.3844,2.3833,2.3852,2.383,2.3854,2.3837,2.3843,2.3842,2.3844,2.3844,2.382,2.3854,2.3915,2.392,2.3845,2.3844,2.3844,0,2.3797,2.3817,2.3839,2.3842,2.3844,2.3854,2.3855,2.3858,2.3865,2.3872,2.3876,2.3886,2.3891,2.3898,2.389,2.3876,2.3915,2.3893,2.3912,2.3912,2.392,2.392,2.3982,2.3927,2.3926,2.3926,2.3926,0,2.3848,2.3869,2.3858,2.3872,2.3894,2.3884,2.3906,2.3905,2.3907,2.392,2.3906,2.3918,2.3908,2.3919,2.3913,2.3932,2.3935,2.3933,2.3931,2.3933,2.3933,2.3936,2.3933,2.3928,2.3928,2.3927,2.3927,0,2.3901,2.3894,2.3917,2.3916,2.3916,2.3932,2.3931,2.3943,2.3939,2.3955,2.3958,2.3952,2.3964,2.3957,2.397,2.3966,2.3991,2.3986,2.399,2.3988,2.4006,2.4004,2.4071,2.4078,2.402,2.402,2.4021,0,2.3933,2.3949,2.3948,2.3955,2.3957,2.3969,2.3975,2.3965,2.3972,2.3977,2.3988,2.3998,2.4006,2.4026,2.4022,2.4031,2.4026,2.4048,2.4027,2.4028,2.4024,2.4022,2.4023,2.4052,2.4053,2.4054,2.4054,0,2.3991,2.3986,2.3996,2.4003,2.4011,2.4017,2.4021,2.4028,2.4018,2.4026,2.4038,2.4044,2.4055,2.4065,2.4073,2.4073,2.4062,2.4061,2.4065,2.4067,2.4068,2.4066,2.4,2.4059,2.4059,2.4058,2.4058,2.4058,2.4033,2.4045,2.4046,2.4057,2.4059,2.4063,2.4073,2.407,2.408,2.4088,2.4082,2.4095,2.4097,2.4105,2.4107,2.4117,2.4108,2.4115,2.4116,2.4118,2.4119,2.4067,2.4119,2.4118,2.4118,2.4118,2.4118,0,2.4089,2.4088,2.4098,2.4104,2.4111,2.4099,2.4103,2.4111,2.4122,2.4125,2.4132,2.4144,2.4154,2.4151,2.4159,2.4167,2.4162,2.4169,2.4168,2.4168,2.4128,2.4123,2.4173,2.4173,2.4173,2.4173,2.4173,2.4173,2.4118,2.4137,2.4133,2.4152,2.4152,2.4164,2.4167,2.417,2.4172,2.4186,2.4193,2.4191,2.4191,2.4199,2.4206,2.4205,2.4208,2.4217,2.4214,2.4177,2.4171,2.4166,2.416,2.4218,2.4219,2.4253,2.4253,2.4253]}]]